TANYUSHA 2 (42912 NORAD) Tracking and Keplerian Element Data

This shows tracking and keplerian element data for the satellite.

Feedback or suggestion? Click here.




ElementValue
Catalog42912
NameTANYUSHA 2
Epoch Orbit11774
Epoch Day248.70315973
Epoch Year2019
RAAN222.5515
Inclination51.6267
Eccentricity0.0001059
Argument of Perigee185.416
Mean Anonmoly169.3834
Mean Motion16.30208236
Decay Rate0.02500102
L11 42912U 98067NB 19248.70315973 .02500102 12117-4 52303-3 0 9999
L22 42912 51.6267 222.5515 0001059 185.4160 169.3834 16.30208236117744

Live tracking and technical data element details for TANYUSHA 2 (NORAD 42912). TANYUSHA 2 can be tracked NOW for your location showing map with azimuth and elevation plus other details from your city location.

Track the satellite on the map from your city or location and see movement details for azimuth, elevation, latitude, longitude, range, height, and movement on the map or in text.







IsCatalogInMostPopularTable: catalog: 42912, numindb: 403
Update: records affected: 1



GetName: 42912 TANYUSHA 2

Hit Count: updated at: Thu, 22 Oct 2020 03:53:13 GMT